Location: Lobstick
(53.6000°N, 115.1667°W)
Time: 22:12:22
(UTC+00:00)

BlueWalker 3 - Visible Passes

Search period start: 29 May 2023 00:00
Search period end: 08 June 2023 00:00
Orbit: 495 x 512 km, 53.2° (Epoch: 29 May)

Date Brightness Start Highest point End Pass type
(mag) Time Alt. Az. Time Alt. Az. Time Alt. Az.
29 May 2.3 05:40:50 10° SW 05:44:29 42° SSE 05:48:10 10° E visible
29 May 1.8 07:18:58 10° W 07:22:50 83° S 07:26:45 10° E visible
29 May 1.8 08:57:28 10° W 09:01:22 70° SSW 09:05:15 10° ESE visible
30 May 2.3 05:20:29 10° SW 05:24:08 42° SSE 05:27:50 10° E visible
30 May 1.8 06:58:37 10° W 07:02:30 84° S 07:06:25 10° E visible
30 May 1.8 08:37:09 10° W 08:41:01 70° SSW 08:44:54 10° ESE visible
30 May 2.9 10:15:52 10° W 10:19:10 27° SW 10:22:30 10° SSE visible
31 May 2.3 05:00:08 10° SW 05:03:48 43° SSE 05:07:29 10° E visible
31 May 1.8 06:38:17 10° W 06:42:10 84° S 06:46:04 10° E visible
31 May 1.8 08:16:49 10° W 08:20:40 69° SSW 08:24:33 10° ESE visible
31 May 2.9 09:55:32 10° W 09:58:49 26° SW 10:02:06 10° SSE visible
01 Jun 1.8 06:17:56 10° W 06:21:48 84° S 06:25:43 10° E visible
01 Jun 1.8 07:56:27 10° W 08:00:19 68° SSW 08:04:12 10° ESE visible
01 Jun 2.9 09:35:13 10° W 09:38:27 26° SW 09:41:43 10° SSE visible
02 Jun 1.9 05:57:34 10° W 06:01:27 85° S 06:05:21 10° E visible
02 Jun 1.8 07:36:06 10° W 07:39:57 67° SSW 07:43:50 10° ESE visible
02 Jun 3.0 09:14:51 10° W 09:18:06 25° SW 09:21:19 10° SSE visible
03 Jun 1.9 05:37:13 10° W 05:41:05 85° S 05:44:59 10° E visible
03 Jun 1.8 07:15:44 10° W 07:19:36 67° SSW 07:23:27 10° ESE visible
03 Jun 3.0 08:54:30 10° W 08:57:42 25° SW 08:59:40 17° S visible
04 Jun 1.9 05:16:51 10° W 05:20:43 85° S 05:24:36 10° E visible
04 Jun 1.9 06:55:22 10° W 06:59:13 66° SSW 07:03:05 10° ESE visible
04 Jun 3.1 08:34:09 10° W 08:37:19 24° SW 08:38:16 22° SSW visible
05 Jun 1.9 04:56:28 10° W 05:00:20 85° S 05:04:13 10° E visible
05 Jun 1.9 06:34:59 10° W 06:38:50 65° SSW 06:42:41 10° ESE visible
05 Jun 3.1 08:13:47 10° W 08:16:56 24° SW 08:17:31 23° SSW visible
06 Jun 1.9 06:14:36 10° W 06:18:26 65° SSW 06:22:18 10° ESE visible
06 Jun 3.1 07:53:25 10° W 07:56:32 23° SW 07:57:03 23° SSW visible
07 Jun 1.9 05:54:13 10° W 05:58:03 64° SSW 06:01:53 10° ESE visible
07 Jun 3.2 07:33:02 10° W 07:36:07 23° SW 07:36:43 22° SSW visible
